Location: Mahannah Oil Field
(37.4664°N, 96.6003°W)
Time: 09:32:07
(UTC+00:00)

Courier 1B - Pass Details

Date: 23 January 2021
Orbit: 962 x 1209 km, 28.3° (Epoch: 02 March)

Event Time Altitude Azimuth Distance (km) Brightness Sun altitude
Rises 08:49:30 0° 258° (WSW) 3,647 - -56.2°
Reaches altitude 10° 08:52:21 10° 250° (WSW) 2,689 - -55.7°
Maximum altitude 08:58:09 36° 186° (S) 1,484 - -54.6°
Drops below altitude 10° 09:04:00 10° 122° (ESE) 2,715 - -53.5°
Exits shadow 09:06:20 - 115° (ESE) 3,492 10.8 -53.1°
Sets 09:06:53 0° 114° (ESE) 3,686 10.9 -53.0°
